Notices

What's New in latest Release from April 7th, 2021:

- Updated Glossary, including Speed of Maximum Gust, and Total Hourly Precipitation

- Updated national and regional climate services offices contacts and prices information

- Addition of station inventory lists for 1981-2010, 1971-2000, and 1961-1990 Normals.

If you haven't already, please take our survey and provide feedback about our website: https://eccc.sondage-survey.ca/f/LanguageSelection.aspx?s=442ca660-fcf1-47c0-95a9-59707d6fd709

Hourly Data Report for February 06, 2004

SHERBROOKE A
QUEBEC

45°26'00.000" N
71°41'00.000" W
241.40 m
7028124
71610
YSC

Download Data

Hourly Data (February 2004)
Hourly Data Report for February 6, 2004
TIME
LST
Temp Definition
°C
Dew Point Definition
°C
Rel Hum Definition
%
Precip. Amount Definition
mm

Wind Dir Definition
10's deg

Wind Spd Definition
km/h
Visibility Definition
km
Stn Press Definition
kPa
Hmdx Definition


Wind Chill Definition


Weather Definition


00:00 -20.4 -23.8 74   7 4 15.0 100.38   -24  
01:00 -19.1 -22.3 76   11 4 15.0 100.38   -22  
02:00 -18.3 -21.6 75   10 6 15.0 100.32   -23  
03:00 -18.3 -21.9 73     0 15.0 100.28      
04:00 -16.7 -20.4 73   9 9 15.0 100.22   -23  
05:00 -16.2 -20.1 72   5 7 15.0 100.11   -21  
06:00 -15.0 -19.2 70   8 7 15.0 100.06   -20  
07:00 -15.2 -19.2 71   8 6 15.0 99.96   -19  
08:00 -14.6 -18.8 70   7 6 24.1 99.85   -19 Cloudy
09:00 -13.2 -17.9 68   7 7 24.1 99.66   -18 Cloudy
10:00 -12.4 -17.5 66   7 9 24.1 99.50   -18 Cloudy
11:00 -11.3 -16.4 66   8 11 4.0 99.38   -17 Snow
12:00 -10.5 -13.8 77   7 13 4.0 99.19   -17 Snow
13:00 -9.8 -13.9 72   7 13 1.6 98.87   -16 Snow
14:00 -8.8 -12.6 74   8 9 0.6 98.78   -13 Moderate Snow
15:00 -7.5 -11.2 75   5 7 1.6 98.65   -11 Snow
16:00 -6.3 -9.9 76   9 11 0.8 98.55   -11 Moderate Snow
17:00 -5.2 -8.7 76   10 15 1.6 98.37   -11 Snow
18:00 -4.8 -8.6 75   10 11 5.6 98.19   -9 Snow
19:00 -4.7 -8.3 76   11 11 2.4 98.08   -9 Snow
20:00 -4.3 -7.9 76   10 11 1.6 97.96   -9 Snow
21:00 -4.0 -7.7 75   10 13 3.7 97.87   -9 Snow
22:00 -4.2 -7.6 77   8 7 4.0 97.73   -7 Snow
23:00 -4.2 -7.6 77   9 7 15.0 97.63   -7 Snow

Notes on Data Quality.

Legend

  • E = Estimated
  • M = Missing
  • NA = Not Available*
  • [empty] = Indicates an unobserved value
Date modified: